Sturgis, MI

9:19 PM EDT on August 19, 2017 (GMT -0400)
Kirsch Municipal

Weather History for KIRS - March, 2013

Change the Weather History Date:

Monday, March 18, 2013

  Actual Average (KHAI) Record (KHAI)
Temperature  
Mean Temperature 30 °F -  
Max Temperature 33 °F 46 °F 71 °F (1966)
Min Temperature 26 °F 26 °F 8 °F (1964)
Degree Days  
Heating Degree Days 36    
Moisture  
Dew Point 27 °F    
Average Humidity 88    
Maximum Humidity 100    
Minimum Humidity 69    
Precipitation  
Precipitation 0.00 in - - ()
Sea Level Pressure  
Sea Level Pressure 29.75 in    
Wind  
Wind Speed 12 mph (SE)    
Max Wind Speed 17 mph    
Max Gust Speed 24 mph    
Visibility 6 miles    
Events Snow    
Averages and records for this station are not official NWS values.
T = Trace of Precipitation, MM = Missing Value Source: NWS Daily Summary

Daily Weather History Graph

Daily Weather History Graph

Search for Another Location

Airport or City:

Trip Planner

Search our weather history database for the weather conditions in past years. The results will help you decide how hot, cold, wet, or windy it might be!

Date:

Astronomy

Mar. 18, 2013 Rise Set
Actual Time 7:48 AM EDT 7:52 PM EDT
Civil Twilight 7:20 AM EDT 8:19 PM EDT
Nautical Twilight 6:47 AM EDT 8:52 PM EDT
Astronomical Twilight 6:14 AM EDT 9:25 PM EDT
Moon 11:42 AM EDT (3/18) 1:55 AM EDT (3/18)
Length of Visible Light 12h 59m
Length of Day
12h 03m
Waxing Crescent, 40% of the Moon is Illuminated
Mar 18
Waxing Crescent
Mar 19
First Quarter
Mar 27
Full
Apr 3
Last Quarter
Apr 10
New

Hourly Weather History & Observations

Time (EDT) Temp. Windchill Dew Point Humidity Pressure Visibility Wind Dir Wind Speed Gust Speed Precip Events Conditions
12:14 AM 26.6 °F 15.2 °F 17.6 °F 69% 30.07 in 10.0 mi East 13.8 mph - N/A   Clear
12:35 AM 26.6 °F 16.8 °F 17.6 °F 69% 30.06 in 10.0 mi East 10.4 mph - N/A   Clear
12:54 AM 26.6 °F 16.8 °F 19.4 °F 74% 30.05 in 10.0 mi East 10.4 mph 17.3 mph N/A   Clear
1:15 AM 26.6 °F 15.7 °F 19.4 °F 74% 30.04 in 10.0 mi ESE 12.7 mph 20.7 mph N/A   Clear
1:34 AM 26.6 °F 15.7 °F 19.4 °F 74% 30.05 in 10.0 mi ESE 12.7 mph 17.3 mph N/A   Clear
1:55 AM 26.6 °F 14.7 °F 19.4 °F 74% 30.04 in 10.0 mi ESE 15.0 mph 19.6 mph N/A   Clear
2:15 AM 26.6 °F 16.2 °F 19.4 °F 74% 30.02 in 10.0 mi East 11.5 mph 17.3 mph N/A   Clear
2:35 AM 26.6 °F 15.2 °F 19.4 °F 74% 30.01 in 10.0 mi East 13.8 mph 21.9 mph N/A   Clear
2:55 AM 26.6 °F 15.2 °F 19.4 °F 74% 30.00 in 10.0 mi East 13.8 mph 19.6 mph N/A   Clear
3:14 AM 26.6 °F 15.2 °F 19.4 °F 74% 29.99 in 10.0 mi East 13.8 mph 19.6 mph N/A   Clear
3:35 AM 26.6 °F 15.2 °F 19.4 °F 74% 29.97 in 10.0 mi East 13.8 mph 18.4 mph N/A   Clear
3:55 AM 26.6 °F 16.2 °F 19.4 °F 74% 29.95 in 10.0 mi East 11.5 mph 19.6 mph N/A   Clear
4:14 AM 26.6 °F 15.7 °F 19.4 °F 74% 29.94 in 10.0 mi East 12.7 mph 19.6 mph N/A   Clear
4:35 AM 26.6 °F 15.7 °F 19.4 °F 74% 29.92 in 10.0 mi East 12.7 mph 20.7 mph N/A   Clear
4:55 AM 26.6 °F 15.7 °F 21.2 °F 80% 29.91 in 10.0 mi East 12.7 mph - N/A   Clear
5:14 AM 26.6 °F 16.2 °F 21.2 °F 80% 29.90 in 10.0 mi East 11.5 mph 18.4 mph N/A   Clear
5:35 AM 26.6 °F 15.2 °F 21.2 °F 80% 29.88 in 10.0 mi East 13.8 mph 18.4 mph N/A   Mostly Cloudy
5:55 AM 28.4 °F 17.0 °F 21.2 °F 74% 29.86 in 10.0 mi East 15.0 mph 21.9 mph N/A   Overcast
6:14 AM 28.4 °F 17.5 °F 21.2 °F 74% 29.85 in 10.0 mi East 13.8 mph - N/A   Overcast
6:35 AM 28.4 °F 16.6 °F 21.2 °F 74% 29.85 in 10.0 mi East 16.1 mph 19.6 mph N/A   Overcast
6:54 AM 28.4 °F 18.5 °F 21.2 °F 74% 29.85 in 7.0 mi East 11.5 mph 16.1 mph N/A Snow Light Snow
7:14 AM 28.4 °F 17.5 °F 24.8 °F 86% 29.84 in 3.0 mi East 13.8 mph 19.6 mph N/A Snow Light Snow
7:35 AM 28.4 °F 18.0 °F 24.8 °F 86% 29.83 in 4.0 mi East 12.7 mph - N/A Snow Light Snow
7:54 AM 28.4 °F 16.6 °F 24.8 °F 86% 29.81 in 4.0 mi East 16.1 mph - N/A Snow Light Snow
8:15 AM 28.4 °F 18.0 °F 24.8 °F 86% 29.81 in 3.0 mi East 12.7 mph - N/A Snow Light Snow
8:35 AM 28.4 °F 17.5 °F 26.6 °F 93% 29.79 in 4.0 mi East 13.8 mph - N/A Snow Light Snow
8:54 AM 28.4 °F 17.5 °F 26.6 °F 93% 29.77 in 4.0 mi East 13.8 mph - N/A   Overcast
9:15 AM 28.4 °F 17.5 °F 26.6 °F 93% 29.75 in 3.0 mi East 13.8 mph 23.0 mph N/A   Overcast
9:35 AM 28.4 °F 18.5 °F 26.6 °F 93% 29.74 in 3.0 mi East 11.5 mph - N/A   Overcast
9:54 AM 28.4 °F 16.6 °F 26.6 °F 93% 29.73 in 2.5 mi East 16.1 mph 20.7 mph N/A   Overcast
10:15 AM 28.4 °F 17.5 °F 26.6 °F 93% 29.72 in 5.0 mi East 13.8 mph 20.7 mph N/A   Overcast
10:35 AM 28.4 °F 17.0 °F 26.6 °F 93% 29.72 in 10.0 mi East 15.0 mph 20.7 mph N/A   Overcast
10:54 AM 28.4 °F 18.5 °F 26.6 °F 93% 29.71 in 5.0 mi East 11.5 mph - N/A   Overcast
11:15 AM 30.2 °F 20.2 °F 28.4 °F 93% 29.69 in 4.0 mi East 12.7 mph 19.6 mph N/A   Overcast
11:35 AM 30.2 °F 21.3 °F 28.4 °F 93% 29.70 in 3.0 mi East 10.4 mph - N/A   Overcast
11:54 AM 30.2 °F 20.8 °F 28.4 °F 93% 29.69 in 1.5 mi East 11.5 mph 16.1 mph N/A   Overcast
12:15 PM 30.2 °F 21.3 °F 28.4 °F 93% 29.69 in 3.0 mi ESE 10.4 mph - N/A   Overcast
12:34 PM 30.2 °F 20.8 °F 30.2 °F 100% 29.67 in 3.0 mi ESE 11.5 mph - N/A   Overcast
12:54 PM 30.2 °F 20.2 °F 30.2 °F 100% 29.65 in 2.5 mi East 12.7 mph 18.4 mph N/A   Overcast
1:15 PM 32.0 °F 23.6 °F 30.2 °F 93% 29.64 in 2.5 mi East 10.4 mph - N/A   Overcast
1:34 PM 32.0 °F 23.6 °F 30.2 °F 93% 29.63 in 2.0 mi ESE 10.4 mph - N/A   Overcast
1:54 PM 32.0 °F 22.1 °F 30.2 °F 93% 29.62 in 1.2 mi ESE 13.8 mph - N/A Snow Light Snow
2:15 PM 32.0 °F 22.1 °F 30.2 °F 93% 29.60 in 1.5 mi ESE 13.8 mph - N/A   Overcast
2:34 PM 33.8 °F 25.8 °F 32.0 °F 93% 29.58 in 1.8 mi ESE 10.4 mph - N/A   Overcast
2:55 PM 33.8 °F 29.6 °F 32.0 °F 93% 29.59 in 1.5 mi ESE 4.6 mph - N/A Snow Light Snow
3:15 PM 33.8 °F 26.4 °F 32.0 °F 93% 29.57 in 1.5 mi SE 9.2 mph - N/A Snow Light Snow
3:34 PM 33.8 °F 28.6 °F 32.0 °F 93% 29.58 in 4.0 mi SSE 5.8 mph - N/A   Overcast
3:55 PM 33.8 °F 28.6 °F 32.0 °F 93% 29.57 in 1.8 mi SE 5.8 mph - N/A   Overcast
4:14 PM 33.8 °F 30.8 °F 32.0 °F 93% 29.56 in 1.2 mi SSE 3.5 mph - N/A   Overcast
4:34 PM 33.8 °F 28.6 °F 32.0 °F 93% 29.58 in 1.2 mi South 5.8 mph - N/A Snow Light Snow
5:14 PM 33.8 °F 29.6 °F 33.8 °F 100% 29.55 in 2.0 mi SSW 4.6 mph - N/A   Overcast
5:34 PM 33.8 °F 29.6 °F 33.8 °F 100% 29.56 in 3.0 mi SW 4.6 mph - N/A   Overcast
5:55 PM 33.8 °F 27.7 °F 33.8 °F 100% 29.57 in 1.2 mi SW 6.9 mph - N/A   Overcast
6:14 PM 33.8 °F 27.0 °F 33.8 °F 100% 29.57 in 1.0 mi SW 8.1 mph - N/A Snow Light Snow
6:35 PM 33.8 °F 26.4 °F 33.8 °F 100% 29.58 in 1.2 mi SW 9.2 mph - N/A   Overcast
6:55 PM 33.8 °F 25.3 °F 33.8 °F 100% 29.59 in 2.0 mi WSW 11.5 mph - N/A   Overcast
7:14 PM 33.8 °F 25.3 °F 33.8 °F 100% 29.58 in 3.0 mi WSW 11.5 mph - N/A   Overcast
7:35 PM 33.8 °F 24.3 °F 33.8 °F 100% 29.60 in 3.0 mi WSW 13.8 mph 19.6 mph N/A   Overcast
7:55 PM 33.8 °F 23.5 °F 33.8 °F 100% 29.61 in 3.0 mi West 16.1 mph 19.6 mph N/A   Overcast
8:14 PM 33.8 °F 24.8 °F 32.0 °F 93% 29.62 in 4.0 mi West 12.7 mph - N/A Snow Light Snow
8:35 PM 33.8 °F 24.3 °F 32.0 °F 93% 29.63 in 5.0 mi West 13.8 mph - N/A Snow Light Snow
8:55 PM 33.8 °F 23.9 °F 32.0 °F 93% 29.64 in 7.0 mi West 15.0 mph - N/A   Overcast
9:14 PM 33.8 °F 24.8 °F 32.0 °F 93% 29.64 in 10.0 mi WSW 12.7 mph 20.7 mph N/A   Overcast
9:35 PM 33.8 °F 24.8 °F 30.2 °F 87% 29.65 in 10.0 mi WSW 12.7 mph - N/A   Overcast
9:54 PM 33.8 °F 25.3 °F 30.2 °F 87% 29.66 in 10.0 mi WSW 11.5 mph - N/A   Overcast
10:14 PM 33.8 °F 24.8 °F 30.2 °F 87% 29.65 in 3.0 mi WSW 12.7 mph 19.6 mph N/A   Overcast
10:35 PM 33.8 °F 26.4 °F 32.0 °F 93% 29.65 in 5.0 mi WSW 9.2 mph - N/A   Overcast
10:54 PM 33.8 °F 23.2 °F 32.0 °F 93% 29.65 in 7.0 mi WSW 17.3 mph 23.0 mph N/A   Overcast
11:14 PM 33.8 °F 23.9 °F 32.0 °F 93% 29.66 in 10.0 mi West 15.0 mph 20.7 mph N/A   Overcast
11:54 PM 30.2 °F 18.9 °F 26.6 °F 86% 29.67 in 10.0 mi West 16.1 mph 24.2 mph N/A   Overcast